{"data":{"norad_id":64712,"epoch":"2026-05-25T04:36:34.205184Z","epoch_age_seconds":61650,"freshness":"FRESH","line1":"1 64712U 25142S   26145.19206256  .00003032  00000+0  26179-3 0  9998","line2":"2 64712  70.0001 121.3981 0003422 268.3631  91.7136 14.98335551 50922","mean_motion":14.98335551,"eccentricity":0.0003422,"inclination_deg":70.0001,"raan_deg":121.3981,"arg_perigee_deg":268.3631,"mean_anomaly_deg":91.7136,"bstar":0.00026179,"rev_number":5092,"period_min":96.106643070635,"perigee_km":569.66037485473,"apogee_km":574.41707512091,"semimajor_km":6950.1757249878,"source":"CELESTRAK","updated_at":"2026-05-25T13:38:20.515462Z"}}